Regional Weather Roundup
Issued by NWS Newport/Morehead, NC

Current Version | Previous Version | Graphics & Text | Print | Product List | Glossary On
Versions: 1 2 3 4 5 6 7 8 9 10 11 12 13 14 15 16 17 18 19 20 21 22 23 24 25 26 27 28 29 30 31 32 33 34 35 36 37 38 39 40 41 42 43 44 45 46 47 48 49 50
000 ASUS42 KMHX 060324 RWRMHX WEATHER ROUNDUP FOR EASTERN NORTH CAROLINA NATIONAL WEATHER SERVICE NEWPORT/MOREHEAD CITY NC 1000 PM EST MON DEC 05 2016 NOTE: "FAIR" INDICATES FEW OR NO CLOUDS BELOW 12,000 FEET WITH NO SIGNIFICANT WEATHER AND/OR OBSTRUCTIONS TO VISIBILITY NCZ015>017-031-032-045>047-102-103-060400- NORTH COAST CITY SKY/WX TMP DP RH WIND PRES REMARKS EDENTON CLOUDY 49 43 80 CALM 30.11S ELIZABETH CITY PTCLDY 48 42 80 N5 30.10R KITTY HAWK CLOUDY 51 47 86 N7 30.07S MANTEO MOCLDY 51 46 81 NE7 30.09S $$ NCZ045>047-081-094-103-104-060400- CENTRAL COAST CITY SKY/WX TMP DP RH WIND PRES REMARKS FRISCO PTCLDY 52 47 83 NE7 30.05F $$ NCZ095-097-098-100-101-060400- SOUTHERN COAST CITY SKY/WX TMP DP RH WIND PRES REMARKS BEAUFORT LGT RAIN 52 46 80 N6 30.09R CEDAR ISLAND NOT AVBL JACKSONVILLE CLOUDY 53 49 86 E7 30.07S PINEY ISLAND CLOUDY N/A N/A N/A NE6 30.09R WILMINGTON RAIN 52 52 100 NE10 30.04F $$ NCZ011>013-027>030-043-044-078>080-089-090>093-098-060400- COASTAL PLAIN CITY SKY/WX TMP DP RH WIND PRES REMARKS AHOSKIE CLOUDY 44 43 96 CALM 30.09F CLINTON CLOUDY 53 48 84 NE3 30.07R ELIZABETHTOWN CLOUDY 52 49 89 E5 30.03F GOLDSBORO CLOUDY 52 50 92 NE6 30.07S GREENVILLE CLOUDY 50 46 87 CALM 30.11S HAVELOCK CLOUDY 52 43 71 NE10 30.10R KENANSVILLE CLOUDY 52 46 82 E5 30.06F KINSTON CLOUDY 52 45 76 E3 30.09S NEW BERN CLOUDY 50 45 83 E3 30.10R RICHLANDS LGT RAIN 51 48 89 NE9 30.08S ROCKY MOUNT CLOUDY 50 46 86 CALM 30.10R WASHINGTON CLOUDY 48 43 81 NE3 30.11R WHITEVILLE NOT AVBL $$ AMZ130-135-150-152-154-156-158-170-250-252-270-ANZ085-086-088-633-658-670-060400- MARINE OBSERVATIONS STATION/POSITION TIME TEMP WIND PRES WAVE SWELL AIR SEA DIR/SP/G HT/PER HT/PER (UTC) (F) (DEG/KT/KT) (MB) (FT/S) (FT/S) CHESAPEAKE LIGHT NOT AVBL 64 E VA BEACH 0250 53 60 20/ 19/ 23 1017.3 6/ 6 2/ 8 DUCK 0300 52 54 20/ 11/ 13 1018.3 2 E DUCK NOT AVBL OREGON INLET 0300 53 56 30/ 9/ 12 1018.2 13E OREGON INLT NOT AVBL HATTERAS CG 0300 53 60 30/ 12/ 15 1017.1 DIAMOND BUOY 0250 58 76 30/ 14/ 17 1017.4 5/ 8 3/ 8 CAPE LOOKOUT 0300 53 10/ 11/ 15 1018.3 BEAUFORT LAB 0300 51 56 10/ 5/ 9 1017.9 30 SE NEW RVR IN 0308 55 70 40/ 17/ 23 1016.1 30 SE NEW RVR IN NOT AVBL 27 SE WRIGHTSVLE 0308 60 68 70/ 19/ 25 1016.0 5 SE WRIGHTSVLE 0308 54 62 70/ 14/ 25 1015.8 225 S CAPE HAT 0250 71 74 210/ 14/ 17 1014.9 6/ 6 3/11 41 SE CHARLESTON 0250 70 74 70/ 14/ 17 1013.2 4/ 6 2/10 $$

USA.gov is the U.S. government's official web portal to all federal, state and local government web resources and services.